Location: Newark
(35.2672°N, 80.7344°W)
Time: 21:02:47
(UTC+00:00)

A-11 Canister half - Pass Details

Date: 27 January 2020
Orbit: 1524 x 1684 km, 47.3° (Epoch: 26 February)

Event Time Altitude Azimuth Distance (km) Brightness Sun altitude
Rises 23:27:50 0° 261° (W) 4,669 13.8 -9.0°
Reaches altitude 10° 23:31:00 10° 267° (W) 3,694 12.5 -9.6°
Maximum altitude 23:39:58 49° 341° (NNW) 1,915 9.5 -11.3°
Enters shadow 23:48:31 12° 54° (NE) 3,587 10.4 -13.0°
